User: anonymous   Login
Location: Unspecified
(0.0000°N, 0.0000°E)
Time: 03:24:58
(UTC+00:00)
Language:

OBJECT K - Orbit

View from above orbital plane
View from above orbital plane
View from above satellite
View from above satellite

Ground track
Ground track

The orbit is defined by the following mean orbital elements,

1 67257U          26145.15247807 +.00000000 +00000-0 +37601-3 0 00002
2 67257  97.3937 220.1100 0017070  87.7034 272.6156 15.22618502    08
Epoch (UTC): 25 May 2026 03:39:34
Eccentricity: 0.0017070
inclination: 97.3937°
perigee height: 486 km
apogee height: 510 km
right ascension of ascending node: 220.1100°
argument of perigee: 87.7034°
revolutions per day: 15.22618502
mean anomaly at epoch: 272.6156°

The dashed part of the orbit path shows where the satellite is in the earth's shadow,  

DLR